This is the latest recevied weather packets stored in our database for station/object KE6YLF. If no packets are shown the sender has not sent any weather packets the latest 10 day(s).
| Time | Temp. | Humidity | Pressure | Rain* | Wind** | Luminosity | Snow |
|---|---|---|---|---|---|---|---|
| 1787860465 | 42.22° C | 25% | 1076.1 hPa | 0 mm | - | - | - |
| 1787860165 | 42.22° C | 24% | 1076.1 hPa | 0 mm | - | - | - |
| 1787859861 | 42.78° C | 24% | 1076 hPa | 0 mm | - | - | - |
| 1787859555 | 42.22° C | 25% | 1076.1 hPa | 0 mm | - | - | - |
| 1787859255 | 42.22° C | 25% | 1076.1 hPa | 0 mm | - | - | - |
| 1787858952 | 42.78° C | 25% | 1076.1 hPa | 0 mm | - | - | - |
| 1787858647 | 42.22° C | 25% | 1076.2 hPa | 0 mm | - | - | - |
| 1787858342 | 41.67° C | 25% | 1076.5 hPa | 0 mm | - | - | - |
| 1787858037 | 41.11° C | 26% | 1076.5 hPa | 0 mm | - | - | - |
| 1787857732 | 40.56° C | 26% | 1076.5 hPa | 0 mm | - | - | - |
| 1787857429 | 41.11° C | 26% | 1076.6 hPa | 0 mm | - | - | - |
| 1787857126 | 40.56° C | 27% | 1076.5 hPa | 0 mm | - | - | - |
| 1787856822 | 42.22° C | 26% | 1076.5 hPa | 0 mm | - | - | - |
| 1787856515 | 41.11° C | 26% | 1076.7 hPa | 0 mm | - | - | - |
| 1787856206 | 40.56° C | 26% | 1076.9 hPa | 0 mm | - | - | - |
| 1787855905 | 40.56° C | 26% | 1077.1 hPa | 0 mm | - | - | - |
| 1787855601 | 40° C | 27% | 1077.1 hPa | 0 mm | - | - | - |
| 1787855296 | 40° C | 27% | 1077.2 hPa | 0 mm | - | - | - |
| 1787854992 | 40.56° C | 27% | 1077.4 hPa | 0 mm | - | - | - |
| 1787854686 | 40.56° C | 27% | 1077.3 hPa | 0 mm | - | - | - |
| 1787854380 | 41.11° C | 27% | 1077.5 hPa | 0 mm | - | - | - |
| 1787854076 | 41.11° C | 27% | 1077.6 hPa | 0 mm | - | - | - |
| 1787853775 | 41.67° C | 27% | 1077.5 hPa | 0 mm | - | - | - |
| 1787853474 | 40° C | 28% | 1077.5 hPa | 0 mm | - | - | - |
| 1787853174 | 39.44° C | 28% | 1077.6 hPa | 0 mm | - | - | - |
* Rain latest hour (hover to see other rain measurements)
** Current wind speed in m/s (hover to see current wind gust speed)